[[{"header":{"parameterUnit":"m.s-1","parameterCategory":2,"la1":30.2992,"la2":30.254,"lo1":-89.0895,"lo2":-89.0443,"dy":0.0025,"dx":0.0025,"nx":19,"ny":19,"refTime":"2026-04-11T03:00:00:Z","depth":"0","parameterNumber":2,"parameterNumberName":"U-component_of_CURRENTS"},"data":[0,0,0,0.0285,0.0285,0.0297,0.0297,0.0326,0.0326,0,0,0,0,0,0,0,0,0,0,0,0.0279,0.0279,0.0285,0.0285,0.0297,0.0298,0.0326,0.0326,0,0,0,0,0,0,0,0,0,0,0,0.0279,0.0279,0.0279,0.0285,0.0297,0.0298,0.0326,0.0315,0,0,0,0,0,0,0,0,0,0,0.0302,0.0292,0.0279,0.0279,0.0285,0.0297,0.0298,0.0314,0.0315,0.0322,0,0.0317,0,0.0321,0.0328,0.0328,0,0,0,0.0291,0.0291,0.0293,0.0278,0.0285,0.0297,0.0294,0.0315,0.0316,0.0324,0.0318,0.0319,0.0321,0.0328,0.0328,0.0321,0.0321,0,0,0.029,0.0285,0.0292,0.0294,0.028,0.0293,0.0294,0.0316,0.0315,0.0318,0.032,0.0322,0.0328,0.0328,0.0321,0.0321,0,0,0,0.0284,0.0284,0.0286,0.0293,0.0293,0.0293,0.0294,0.0314,0.0314,0.032,0.0322,0.0328,0.0328,0.0322,0.0321,0.0383,0,0,0,0.0284,0.028,0.0285,0.0282,0.0292,0.0302,0.0292,0.0312,0.0315,0.0322,0.0328,0.0329,0.0322,0.0322,0.0382,0.0479,0,0,0,0.028,0.028,0.0278,0.0282,0.0285,0.0302,0.0303,0.0313,0.0316,0.0328,0.0329,0.0322,0.0322,0.0381,0.0474,0.0694,0,0,0,0.0278,0.0273,0.0278,0.0273,0.0284,0.029,0.0303,0.0307,0.0315,0.0328,0.0322,0.0321,0.0381,0.0472,0.0688,0.0887,0.093,0,0,0.0272,0.0272,0.0269,0.0274,0.0283,0.0289,0.0306,0.0319,0.0308,0.0318,0.0317,0.0382,0.0474,0.0692,0.0851,0.0897,0,0,0,0.0268,0.0274,0.0274,0.028,0.028,0.0318,0.0314,0.0319,0.0334,0.0308,0.0352,0.0409,0.0547,0.0651,0.0685,0.0701,0.0319,0.0319,0.0319,0.0293,0.0287,0.0298,0.0303,0.0308,0.033,0.0372,0.0378,0.034,0.0346,0.0434,0.0612,0.0713,0.0745,0.0753,0.0367,0.0368,0.0368,0.0368,0.0329,0.0364,0.0341,0.0355,0.0376,0.0398,0.044,0.0443,0.058,0.0458,0.0588,0.0676,0.0788,0.0783,0.0371,0.0371,0.037,0.037,0.037,0.0397,0.0417,0.0403,0.0433,0.0474,0.0491,0.0649,0.067,0.0693,0.0794,0.1022,0.1022,0.1058,0.0896,0.0898,0.0899,0.09,0.0901,0.0902,0.0503,0.0485,0.0538,0.0541,0.0595,0.0697,0.0821,0.096,0.1163,0.1174,0.1176,0.1123,0.0777,0.0802,0.0923,0.0919,0.0917,0.0915,0.0913,0.0669,0.0632,0.0726,0.0775,0.0879,0.1002,0.111,0.1433,0.1605,0.176,0.164,0.1402,0.1452,0.1422,0.1463,0.175,0.175,0.175,0.175,0.08,0.0776,0.0929,0.1035,0.1148,0.1176,0.1465,0.1674,0.1917,0.2014,0.1986,0.1836,0.1802,0.1859,0.182,0.1862,0.2243,0.2244,0.2244,0.0952,0.0969,0.112,0.1156,0.1264,0.1352,0.153,0.1721,0.2092,0.2254,0.1975,0.1955,0.1706,0.1651,0.1702,0.1645,0.1699,0,0]},{"header":{"parameterUnit":"m.s-1","parameterCategory":2,"la1":30.2992,"la2":30.254,"lo1":-89.0895,"lo2":-89.0443,"dy":0.0025,"dx":0.0025,"nx":19,"ny":19,"refTime":"2026-04-11T03:00:00:Z","depth":"0","parameterNumber":3,"parameterNumberName":"V-component_of_CURRENTS"},"data":[0,0,0,-0.0336,-0.0336,-0.0328,-0.0328,-0.0337,-0.0337,0,0,0,0,0,0,0,0,0,0,0,-0.0341,-0.0341,-0.0336,-0.0336,-0.0328,-0.0328,-0.0337,-0.0337,0,0,0,0,0,0,0,0,0,0,0,-0.0341,-0.0341,-0.0341,-0.0336,-0.0328,-0.0328,-0.0337,-0.0338,0,0,0,0,0,0,0,0,0,0,-0.0343,-0.0349,-0.0341,-0.0341,-0.0336,-0.0328,-0.0328,-0.0338,-0.0338,-0.0346,0,-0.0346,0,-0.0341,-0.0338,-0.0338,0,0,0,-0.0336,-0.0349,-0.0343,-0.0341,-0.0336,-0.0328,-0.0332,-0.0338,-0.0338,-0.0346,-0.0346,-0.0346,-0.0341,-0.0338,-0.0338,-0.0364,-0.0364,0,0,-0.0337,-0.0344,-0.0343,-0.0343,-0.0336,-0.0332,-0.0332,-0.0338,-0.0341,-0.0346,-0.0346,-0.0342,-0.0338,-0.0338,-0.0364,-0.0364,0,0,0,-0.0338,-0.0344,-0.0337,-0.0343,-0.034,-0.0332,-0.0331,-0.0341,-0.0338,-0.0346,-0.0342,-0.0338,-0.0338,-0.0364,-0.0364,-0.0344,0,0,0,-0.0338,-0.0345,-0.0338,-0.0342,-0.0339,-0.0339,-0.0335,-0.0338,-0.0338,-0.0342,-0.0338,-0.0339,-0.0364,-0.0364,-0.0344,-0.0237,0,0,0,-0.0341,-0.0345,-0.0344,-0.0343,-0.0338,-0.0338,-0.0335,-0.0337,-0.0336,-0.0338,-0.0339,-0.0364,-0.0364,-0.0344,-0.0241,-0.0073,0,0,0,-0.0349,-0.0341,-0.0344,-0.034,-0.0338,-0.0339,-0.0335,-0.0336,-0.0338,-0.0338,-0.0364,-0.0364,-0.0344,-0.0243,-0.0077,0.0149,0.0188,0,0,-0.034,-0.034,-0.0338,-0.034,-0.0342,-0.034,-0.0346,-0.0345,-0.0348,-0.0363,-0.0363,-0.0344,-0.0241,-0.0074,0.0124,0.0166,0,0,0,-0.0336,-0.0334,-0.0337,-0.034,-0.0344,-0.0329,-0.0351,-0.0352,-0.0353,-0.0351,-0.0358,-0.0292,-0.0186,-0.0063,-0.0031,-0.0141,-0.0366,-0.0366,-0.0366,-0.0326,-0.0331,-0.0326,-0.0334,-0.0335,-0.0334,-0.0308,-0.0312,-0.0362,-0.0361,-0.0291,-0.0159,-0.0036,-0.0007,-0.0129,-0.036,-0.036,-0.036,-0.036,-0.0304,-0.0284,-0.0305,-0.0294,-0.029,-0.0287,-0.0266,-0.0274,-0.0184,-0.0285,-0.0186,-0.0068,0.0031,-0.0112,-0.0359,-0.0359,-0.0359,-0.0359,-0.0359,-0.0283,-0.0263,-0.027,-0.0237,-0.0205,-0.02,-0.0026,-0.0049,-0.008,-0.0008,0.0214,0.0215,0.0119,0.0054,0.0055,0.0056,0.0057,0.0058,0.0059,-0.0226,-0.0232,-0.0162,-0.0149,-0.0085,0.0038,0.0153,0.0272,0.0383,0.0348,0.035,0.0163,-0.0029,-0.0012,0.0076,0.0073,0.0071,0.0069,0.0068,-0.0121,-0.012,-0.0006,0.0066,0.0234,0.0454,0.0523,0.0812,0.0889,0.0993,0.0632,0.0553,0.0618,0.0592,0.0625,0.0874,0.0874,0.0874,0.0874,-0.0018,-0.0023,0.0202,0.0373,0.057,0.0683,0.1093,0.1245,0.1158,0.1059,0.0891,0.0752,0.0725,0.0783,0.0753,0.0783,0.1066,0.1066,0.1065,0.0111,0.0152,0.0369,0.0513,0.0737,0.0975,0.1343,0.1549,0.1325,0.1047,0.0691,0.0683,0.0434,0.04,0.0446,0.0413,0.0446,0,0]}],[{"header":{"parameterUnit":"m.s-1","parameterCategory":2,"la1":30.2992,"la2":30.254,"lo1":-89.0895,"lo2":-89.0443,"dy":0.0025,"dx":0.0025,"nx":19,"ny":19,"refTime":"2026-04-11T03:00:00:Z","depth":"2","parameterNumber":2,"parameterNumberName":"U-component_of_CURRENTS"},"data":[0,0,0,0.0318,0.0318,0.0301,0.0301,0.0296,0.0296,0,0,0,0,0,0,0,0,0,0,0,0.0322,0.0322,0.0318,0.0318,0.0301,0.0301,0.0296,0.0296,0,0,0,0,0,0,0,0,0,0,0,0.0322,0.0322,0.0322,0.0318,0.0301,0.0301,0.0296,0.0302,0,0,0,0,0,0,0,0,0,0,0.0316,0.0316,0.0322,0.0322,0.0318,0.0301,0.0301,0.0302,0.0302,0.031,0,0.0311,0,0.0308,0.0297,0.0297,0,0,0,0.031,0.0316,0.0318,0.0322,0.0318,0.0301,0.0306,0.0302,0.0302,0.031,0.0311,0.0311,0.0308,0.0297,0.0297,0.0357,0.0357,0,0,0.0311,0.0312,0.0318,0.0317,0.0318,0.0307,0.0306,0.0301,0.03,0.0311,0.0311,0.0308,0.0297,0.0297,0.0356,0.0357,0,0,0,0.0319,0.0313,0.0314,0.0318,0.0316,0.0307,0.0306,0.03,0.0302,0.031,0.0308,0.0297,0.0297,0.0355,0.0356,0.0385,0,0,0,0.0319,0.0318,0.0314,0.0314,0.0316,0.0305,0.0304,0.0302,0.0302,0.0308,0.0297,0.0297,0.0355,0.0356,0.0383,0.0462,0,0,0,0.0321,0.0318,0.0319,0.0314,0.0311,0.0305,0.0306,0.0302,0.0301,0.0297,0.0297,0.0354,0.0356,0.0381,0.0457,0.0622,0,0,0,0.0319,0.0319,0.0319,0.0319,0.0312,0.0321,0.0306,0.031,0.0309,0.0297,0.0355,0.0356,0.0381,0.0453,0.0616,0.0684,0.0715,0,0,0.0317,0.0318,0.0319,0.0319,0.0333,0.0322,0.0342,0.0334,0.0335,0.0354,0.0356,0.0384,0.0456,0.0621,0.0763,0.0792,0,0,0,0.0318,0.0326,0.0329,0.0336,0.034,0.0367,0.0352,0.0357,0.038,0.0342,0.0404,0.0451,0.0553,0.0582,0.0605,0.0363,0.0363,0.0362,0.0362,0.0344,0.0341,0.0357,0.0365,0.0374,0.0395,0.0429,0.0443,0.0407,0.0432,0.0485,0.0653,0.0679,0.0698,0.0464,0.0464,0.0464,0.0465,0.0465,0.0381,0.0417,0.0398,0.0417,0.0439,0.0465,0.0507,0.0509,0.0627,0.0534,0.0631,0.0624,0.0725,0.0467,0.0467,0.0466,0.0466,0.0466,0.0466,0.0444,0.0466,0.0456,0.049,0.0533,0.0553,0.0681,0.0701,0.0718,0.0797,0.0914,0.0913,0.0737,0.0867,0.0868,0.0869,0.087,0.0871,0.0871,0.0545,0.0531,0.0572,0.0593,0.0628,0.0718,0.0824,0.0915,0.103,0.1026,0.1027,0.0793,0.0779,0.0765,0.0888,0.0885,0.0883,0.0881,0.088,0.0681,0.0663,0.071,0.074,0.0818,0.0899,0.1007,0.1204,0.1331,0.141,0.1175,0.1162,0.1197,0.1177,0.1175,0.1398,0.1398,0.1398,0.1398,0.0792,0.078,0.0831,0.0867,0.0946,0.0984,0.1151,0.125,0.1358,0.1327,0.1329,0.1172,0.1155,0.1177,0.1157,0.1149,0.1366,0.1366,0.1365,0.0904,0.0877,0.0925,0.0905,0.0967,0.1047,0.1112,0.1151,0.1219,0.1351,0.1193,0.1421,0.1188,0.1162,0.1189,0.116,0.1144,0,0]},{"header":{"parameterUnit":"m.s-1","parameterCategory":2,"la1":30.2992,"la2":30.254,"lo1":-89.0895,"lo2":-89.0443,"dy":0.0025,"dx":0.0025,"nx":19,"ny":19,"refTime":"2026-04-11T03:00:00:Z","depth":"2","parameterNumber":3,"parameterNumberName":"V-component_of_CURRENTS"},"data":[0,0,0,-0.0352,-0.0352,-0.0368,-0.0368,-0.0421,-0.0422,0,0,0,0,0,0,0,0,0,0,0,-0.0359,-0.0359,-0.0352,-0.0352,-0.0368,-0.0368,-0.0421,-0.0422,0,0,0,0,0,0,0,0,0,0,0,-0.0359,-0.0359,-0.0359,-0.0352,-0.0368,-0.0369,-0.0421,-0.0404,0,0,0,0,0,0,0,0,0,0,-0.0386,-0.0387,-0.0359,-0.0359,-0.0352,-0.0368,-0.0369,-0.0403,-0.0405,-0.0419,0,-0.0422,0,-0.0413,-0.0425,-0.0425,0,0,0,-0.0365,-0.0386,-0.0381,-0.0359,-0.0352,-0.0368,-0.0365,-0.0404,-0.0407,-0.0422,-0.0422,-0.0424,-0.0413,-0.0425,-0.0425,-0.0463,-0.0463,0,0,-0.0365,-0.0372,-0.0379,-0.0382,-0.0357,-0.0364,-0.0365,-0.0405,-0.0414,-0.0422,-0.0424,-0.0414,-0.0425,-0.0426,-0.0463,-0.0463,0,0,0,-0.0353,-0.0372,-0.0366,-0.0381,-0.0375,-0.0364,-0.0365,-0.0413,-0.0408,-0.0425,-0.0415,-0.0426,-0.0426,-0.0463,-0.0463,-0.0426,0,0,0,-0.0353,-0.0363,-0.0365,-0.0371,-0.0374,-0.039,-0.0372,-0.0406,-0.041,-0.0415,-0.0426,-0.0427,-0.0463,-0.0463,-0.0427,-0.0361,0,0,0,-0.0358,-0.0364,-0.0364,-0.0371,-0.037,-0.0389,-0.0388,-0.0407,-0.0403,-0.0425,-0.0427,-0.0463,-0.0463,-0.0428,-0.0364,-0.0321,0,0,0,-0.0368,-0.0364,-0.0364,-0.0364,-0.0369,-0.0374,-0.0387,-0.04,-0.0418,-0.0426,-0.0463,-0.0463,-0.0428,-0.0366,-0.0323,-0.0302,-0.029,0,0,-0.0363,-0.0364,-0.0363,-0.0363,-0.0363,-0.0373,-0.0382,-0.0409,-0.0426,-0.0454,-0.0455,-0.0427,-0.0364,-0.0321,-0.0312,-0.0299,0,0,0,-0.0361,-0.0359,-0.0362,-0.0364,-0.037,-0.0366,-0.0398,-0.0404,-0.0423,-0.0434,-0.0441,-0.0402,-0.0376,-0.0369,-0.0359,-0.0464,-0.0464,-0.0464,-0.0464,-0.0357,-0.0357,-0.0354,-0.0357,-0.0363,-0.037,-0.0361,-0.0376,-0.042,-0.042,-0.0384,-0.0336,-0.0332,-0.0323,-0.0426,-0.0426,-0.0425,-0.0425,-0.0425,-0.0337,-0.0321,-0.0335,-0.0326,-0.0326,-0.0329,-0.0326,-0.0336,-0.0312,-0.0363,-0.0342,-0.0346,-0.031,-0.0423,-0.0423,-0.0423,-0.0424,-0.0424,-0.0424,-0.0322,-0.0306,-0.0309,-0.0283,-0.0264,-0.0268,-0.02,-0.0212,-0.0244,-0.0214,-0.0217,-0.0218,-0.0276,-0.0221,-0.0221,-0.022,-0.022,-0.022,-0.0219,-0.0283,-0.0284,-0.0252,-0.0222,-0.0204,-0.0148,-0.0112,-0.0093,-0.0104,-0.0135,-0.0136,-0.0266,-0.0273,-0.0264,-0.0212,-0.0213,-0.0214,-0.0215,-0.0216,-0.0226,-0.0213,-0.0187,-0.0165,-0.0102,-0.0001,0.001,0.0059,0.0054,0.0058,-0.0097,-0.0102,-0.0097,-0.0107,-0.0094,-0.0001,-0.0001,-0.0001,-0.0001,-0.0167,-0.0163,-0.0135,-0.0108,-0.0035,0.0055,0.0226,0.03,0.0216,0.0145,0.0139,0.0082,0.007,0.008,0.0066,0.0081,0.022,0.0221,0.0221,-0.0105,-0.0129,-0.0105,-0.0096,-0.0026,0.0131,0.0372,0.0526,0.0346,0.0233,0.0213,0.0007,-0.0099,-0.011,-0.0116,-0.0129,-0.0115,0,0]}],[{"header":{"parameterUnit":"m.s-1","parameterCategory":2,"la1":30.2992,"la2":30.254,"lo1":-89.0895,"lo2":-89.0443,"dy":0.0025,"dx":0.0025,"nx":19,"ny":19,"refTime":"2026-04-11T03:00:00:Z","depth":"4","parameterNumber":2,"parameterNumberName":"U-component_of_CURRENTS"},"data":[0,0,0,0.0324,0.0327,0.046,0.0461,0.0508,0.0509,0,0,0,0,0,0,0,0,0,0,0,0.0281,0.0283,0.0324,0.0327,0.046,0.0461,0.0508,0.0509,0,0,0,0,0,0,0,0,0,0,0,0.0281,0.0282,0.0284,0.0328,0.046,0.0461,0.0508,0.0435,0,0,0,0,0,0,0,0,0,0,0.032,0.0304,0.0282,0.0284,0.0329,0.046,0.0461,0.0433,0.0439,0.0418,0,0.046,0,0.0488,0.051,0.051,0,0,0,0.0313,0.0299,0.0336,0.0285,0.033,0.046,0.0396,0.0437,0.0445,0.0426,0.0461,0.0463,0.0489,0.051,0.0511,0.0591,0.0591,0,0,0.0306,0.0297,0.0332,0.0342,0.039,0.0392,0.0401,0.0443,0.0458,0.0461,0.0465,0.049,0.0511,0.0511,0.059,0.0591,0,0,0,0.0294,0.0292,0.033,0.0339,0.0375,0.0396,0.0406,0.0456,0.0471,0.0466,0.049,0.0511,0.0511,0.0589,0.059,0.0648,0,0,0,0.0289,0.0286,0.0327,0.0321,0.0376,0.0435,0.0418,0.0468,0.0474,0.049,0.0511,0.0511,0.0588,0.059,0.0645,0.0636,0,0,0,0.0271,0.0283,0.0308,0.0321,0.0385,0.0435,0.0452,0.047,0.0488,0.051,0.0511,0.0588,0.059,0.0642,0.0632,0.0692,0,0,0,0.0242,0.0271,0.0308,0.0344,0.0384,0.044,0.0453,0.0504,0.0526,0.0511,0.0589,0.059,0.0641,0.063,0.0689,0.0541,0,0,0,0.025,0.0272,0.0288,0.0324,0.0372,0.0419,0.0482,0.0528,0.0542,0.0561,0.0564,0.0646,0.0632,0.0691,0.0638,0,0,0,0,0.027,0.0287,0.0307,0.0353,0.0401,0.0474,0.0518,0.0574,0.0649,0.0569,0.0663,0.0652,0.0688,0.0594,0.0598,0.0598,0.0598,0.0598,0.0597,0.0251,0.028,0.031,0.0357,0.0404,0.0516,0.0587,0.0671,0.0666,0.0736,0.0714,0.0811,0.0716,0.0747,0.0748,0.0748,0.0748,0.0748,0.0749,0.0243,0.0256,0.0311,0.0354,0.0442,0.052,0.0666,0.0728,0.0821,0.0804,0.0838,0.0678,0.0755,0.0753,0.0753,0.0752,0.0751,0.0751,0.0751,0.0215,0.0225,0.0266,0.0338,0.0454,0.0571,0.0711,0.0806,0.0866,0.0893,0.0804,0.0851,0.083,0.0921,0.0921,0.0921,0.0922,0.0922,0.0922,0.0166,0.0202,0.0241,0.0339,0.041,0.0556,0.0754,0.081,0.0871,0.0833,0.0903,0.0869,0.0863,0.0841,0.0926,0.0925,0.0925,0.0924,0.0924,0.012,0.0151,0.02,0.0258,0.0406,0.0502,0.0697,0.0792,0.0838,0.0813,0.0819,0.0823,0.0785,0.0782,0.0754,0.0817,0.0815,0.0814,0,0.0084,0.0103,0.0159,0.0222,0.0312,0.0456,0.0531,0.0628,0.069,0.0663,0.0784,0.0787,0.079,0.074,0.0735,0.0698,0,0,0,0.0051,0.0078,0.0103,0.0173,0.026,0.0386,0.055,0.0569,0.0689,0.0695,0.0774,0.0784,0.0832,0.0937,0.0888,0.0881,0.0843,0,0]},{"header":{"parameterUnit":"m.s-1","parameterCategory":2,"la1":30.2992,"la2":30.254,"lo1":-89.0895,"lo2":-89.0443,"dy":0.0025,"dx":0.0025,"nx":19,"ny":19,"refTime":"2026-04-11T03:00:00:Z","depth":"4","parameterNumber":3,"parameterNumberName":"V-component_of_CURRENTS"},"data":[0,0,0,0.031,0.031,0.0266,0.0265,0.0247,0.0247,0,0,0,0,0,0,0,0,0,0,0,0.0333,0.0333,0.0311,0.031,0.0266,0.0265,0.0247,0.0247,0,0,0,0,0,0,0,0,0,0,0,0.0333,0.0333,0.0333,0.031,0.0266,0.0265,0.0247,0.0267,0,0,0,0,0,0,0,0,0,0,0.0304,0.0321,0.0333,0.0333,0.031,0.0266,0.0265,0.0268,0.0266,0.0283,0,0.0291,0,0.0274,0.0248,0.0248,0,0,0,0.0295,0.0322,0.0316,0.0333,0.031,0.0266,0.0282,0.0266,0.0265,0.0281,0.029,0.0289,0.0273,0.0248,0.0248,0.0337,0.0338,0,0,0.0298,0.0316,0.0318,0.0316,0.0319,0.0283,0.028,0.0265,0.027,0.029,0.0288,0.0273,0.0248,0.0248,0.0336,0.0337,0,0,0,0.0315,0.0317,0.031,0.0317,0.0309,0.0282,0.0279,0.027,0.027,0.0288,0.0273,0.0248,0.0249,0.0335,0.0336,0.0328,0,0,0,0.0315,0.0328,0.0312,0.032,0.0309,0.0283,0.0285,0.0271,0.0268,0.0273,0.0248,0.0249,0.0334,0.0336,0.0326,0.0303,0,0,0,0.0331,0.0329,0.0332,0.0322,0.0308,0.0282,0.028,0.0269,0.026,0.0248,0.0249,0.0333,0.0335,0.0324,0.0302,0.0268,0,0,0,0.0339,0.0345,0.0333,0.0341,0.0309,0.032,0.0279,0.0278,0.0272,0.0248,0.0334,0.0336,0.0323,0.0301,0.0268,0.0274,0,0,0,0.0347,0.0347,0.0352,0.0339,0.0359,0.0324,0.036,0.033,0.0312,0.0337,0.0338,0.0326,0.0302,0.0268,0.0397,0,0,0,0,0.0355,0.0364,0.0368,0.0378,0.0381,0.0392,0.0376,0.0372,0.0363,0.0321,0.0371,0.0356,0.0334,0.0341,0.0346,0.0346,0.0346,0.0346,0.0345,0.0367,0.0378,0.0399,0.042,0.0438,0.045,0.0443,0.0443,0.0423,0.0427,0.0382,0.0397,0.0411,0.0432,0.0432,0.0432,0.0432,0.0432,0.0432,0.0379,0.0384,0.0427,0.0452,0.0485,0.052,0.0515,0.0489,0.0441,0.0439,0.0418,0.0376,0.0432,0.0432,0.0432,0.0432,0.0432,0.0432,0.0432,0.0368,0.0373,0.0406,0.046,0.051,0.0538,0.0539,0.0488,0.0429,0.0392,0.0369,0.0381,0.034,0.0364,0.0363,0.0363,0.0363,0.0363,0.0363,0.0325,0.0362,0.0399,0.0459,0.0504,0.053,0.0517,0.0482,0.0408,0.0355,0.0365,0.0373,0.0375,0.0337,0.0359,0.036,0.036,0.0361,0.0361,0.0284,0.0311,0.037,0.0421,0.0515,0.0525,0.0535,0.0462,0.04,0.0334,0.0337,0.0339,0.0329,0.0331,0.0291,0.03,0.03,0.03,0,0.0251,0.0267,0.0359,0.0439,0.0494,0.0526,0.049,0.0457,0.0355,0.0334,0.0364,0.0368,0.0369,0.0361,0.0364,0.032,0,0,0,0.0225,0.0266,0.0328,0.0426,0.0494,0.0469,0.0474,0.0435,0.0388,0.0354,0.0303,0.0302,0.0413,0.035,0.0338,0.034,0.0278,0,0]}]]